Ionia, MI

12:03 AM EDT on June 25, 2017 (GMT -0400)
Ionia

Weather History for KY70 - January, 2013

Change the Weather History Date:

Thursday, January 10, 2013

  Actual Average (KGRR) Record (KGRR)
Temperature  
Mean Temperature 36 °F -  
Max Temperature 46 °F 28 °F 57 °F (1975)
Min Temperature 27 °F 14 °F -19 °F (1942)
Degree Days  
Heating Degree Days 28    
Moisture  
Dew Point 27 °F    
Average Humidity 70    
Maximum Humidity 88    
Minimum Humidity 43    
Precipitation  
Precipitation 0.02 in - - ()
Sea Level Pressure  
Sea Level Pressure 30.39 in    
Wind  
Wind Speed 6 mph (SE)    
Max Wind Speed 15 mph    
Max Gust Speed 20 mph    
Visibility 9 miles    
Events Rain    
Averages and records for this station are not official NWS values.
T = Trace of Precipitation, MM = Missing Value Source: NWS Daily Summary

Daily Weather History Graph

Daily Weather History Graph

Search for Another Location

Airport or City:

Trip Planner

Search our weather history database for the weather conditions in past years. The results will help you decide how hot, cold, wet, or windy it might be!

Date:

Astronomy

Jan. 10, 2013 Rise Set
Actual Time 8:10 AM EST 5:25 PM EST
Civil Twilight 7:38 AM EST 5:57 PM EST
Nautical Twilight 7:03 AM EST 6:32 PM EST
Astronomical Twilight 6:29 AM EST 7:06 PM EST
Moon 6:49 AM EST (1/10) 4:33 PM EST (1/10)
Length of Visible Light 10h 18m
Length of Day
9h 15m
Waning Crescent, 2% of the Moon is Illuminated
Jan 10
Waning Crescent
Jan 11
New
Jan 18
First Quarter
Jan 26
Full
Feb 3
Last Quarter

Hourly Weather History & Observations

Time (EST) Temp. Windchill Dew Point Humidity Pressure Visibility Wind Dir Wind Speed Gust Speed Precip Events Conditions
12:14 AM 36.0 °F 33.3 °F 25.7 °F 66% 30.39 in 10.0 mi WNW 3.5 mph - N/A   Clear
12:34 AM 34.5 °F 31.6 °F 25.5 °F 70% 30.40 in 10.0 mi West 3.5 mph - N/A   Clear
12:54 AM 32.4 °F 26.9 °F 26.4 °F 79% 30.42 in 10.0 mi WSW 5.8 mph - N/A   Clear
1:14 AM 32.0 °F 26.4 °F 26.2 °F 79% 30.44 in 10.0 mi SW 5.8 mph - N/A   Clear
1:34 AM 32.9 °F 25.3 °F 26.6 °F 78% 30.47 in 10.0 mi SSW 9.2 mph - N/A   Clear
1:54 AM 33.8 °F 27.0 °F 26.4 °F 74% 30.48 in 10.0 mi SSW 8.1 mph - N/A   Clear
2:14 AM 33.4 °F 26.6 °F 26.6 °F 76% 30.50 in 10.0 mi SSW 8.1 mph - N/A   Clear
2:34 AM 33.4 °F 26.6 °F 26.4 °F 75% 30.51 in 10.0 mi SSW 8.1 mph - N/A   Clear
2:54 AM 32.0 °F 27.5 °F 26.1 °F 79% 30.52 in 10.0 mi SW 4.6 mph - N/A   Clear
3:14 AM 32.0 °F - 25.3 °F 76% 30.51 in 10.0 mi Calm Calm - N/A   Clear
3:34 AM 30.6 °F - 24.6 °F 79% 30.51 in 10.0 mi Calm Calm - N/A   Clear
3:54 AM 31.8 °F - 25.7 °F 78% 30.50 in 10.0 mi Calm Calm - N/A   Clear
4:14 AM 30.6 °F - 24.6 °F 79% 30.49 in 10.0 mi Calm Calm - N/A   Clear
4:34 AM 30.4 °F - 26.4 °F 85% 30.49 in 10.0 mi Calm Calm - N/A   Clear
4:54 AM 31.5 °F - 27.0 °F 83% 30.49 in 10.0 mi Calm Calm - N/A   Clear
5:14 AM 29.7 °F 26.1 °F 25.5 °F 85% 30.49 in 10.0 mi SW 3.5 mph - N/A   Clear
5:34 AM 28.9 °F - 25.2 °F 86% 30.49 in 10.0 mi Calm Calm - N/A   Clear
5:54 AM 29.8 °F - 26.2 °F 86% 30.49 in 10.0 mi Calm Calm - N/A   Clear
6:14 AM 29.8 °F - 25.7 °F 85% 30.50 in 10.0 mi Calm Calm - N/A   Clear
6:34 AM 27.0 °F - 23.2 °F 86% 30.50 in 2.5 mi Calm Calm - N/A   Clear
6:54 AM 28.0 °F - 24.6 °F 87% 30.51 in 7.0 mi Calm Calm - N/A   Clear
7:34 AM 28.4 °F - 25.2 °F 88% 30.51 in 10.0 mi Calm Calm - N/A   Clear
7:54 AM 28.2 °F - 24.8 °F 87% 30.51 in 10.0 mi Calm Calm - N/A   Clear
8:14 AM 27.3 °F - 23.5 °F 86% 30.51 in 10.0 mi Calm Calm - N/A   Clear
8:34 AM 27.5 °F 23.6 °F 24.1 °F 87% 30.52 in 7.0 mi ESE 3.5 mph - N/A   Clear
8:54 AM 29.3 °F 24.3 °F 25.9 °F 87% 30.52 in 7.0 mi SE 4.6 mph - N/A   Clear
9:14 AM 28.9 °F 23.9 °F 25.3 °F 86% 30.52 in 7.0 mi ESE 4.6 mph - N/A   Clear
9:34 AM 30.9 °F 27.5 °F 27.3 °F 86% 30.53 in 7.0 mi SE 3.5 mph - N/A   Clear
9:54 AM 32.0 °F 28.7 °F 28.4 °F 87% 30.52 in 10.0 mi ESE 3.5 mph - N/A   Clear
10:14 AM 33.1 °F 28.7 °F 29.3 °F 86% 30.52 in 10.0 mi SE 4.6 mph - N/A   Clear
10:54 AM 35.8 °F 31.9 °F 29.5 °F 78% 30.50 in 10.0 mi East 4.6 mph - N/A   Clear
11:14 AM 37.2 °F 33.6 °F 29.8 °F 75% 30.50 in 10.0 mi ESE 4.6 mph - N/A   Clear
11:34 AM 38.3 °F 33.2 °F 28.8 °F 69% 30.48 in 10.0 mi ESE 6.9 mph - N/A   Clear
11:54 AM 40.1 °F 35.3 °F 28.6 °F 63% 30.48 in 10.0 mi ESE 6.9 mph - N/A   Clear
12:14 PM 41.4 °F 36.2 °F 29.1 °F 62% 30.46 in 10.0 mi SE 8.1 mph - N/A   Clear
12:34 PM 42.1 °F 37.7 °F 28.9 °F 60% 30.45 in 10.0 mi SSE 6.9 mph - N/A   Clear
12:54 PM 43.7 °F 38.1 °F 27.5 °F 53% 30.43 in 10.0 mi SE 10.4 mph - N/A   Clear
1:14 PM 44.2 °F 38.8 °F 27.5 °F 52% 30.41 in 10.0 mi SE 10.4 mph - N/A   Clear
1:34 PM 44.8 °F 39.9 °F 26.8 °F 49% 30.40 in 10.0 mi SE 9.2 mph - N/A   Clear
1:54 PM 46.6 °F - 26.1 °F 45% 30.39 in 10.0 mi SE 10.4 mph - N/A   Clear
2:34 PM 45.5 °F 40.3 °F 25.0 °F 45% 30.37 in 10.0 mi SE 10.4 mph - N/A   Clear
2:54 PM 46.0 °F 41.9 °F 25.7 °F 45% 30.36 in 10.0 mi ESE 8.1 mph - N/A   Clear
3:14 PM 46.4 °F 41.1 °F 25.0 °F 43% 30.36 in 10.0 mi SE 11.5 mph - N/A   Clear
3:34 PM 46.0 °F 40.6 °F 24.6 °F 43% 30.36 in 10.0 mi SE 11.5 mph - N/A   Clear
3:54 PM 45.5 °F 40.3 °F 25.5 °F 46% 30.35 in 10.0 mi SE 10.4 mph - N/A   Clear
4:14 PM 45.5 °F 41.3 °F 25.7 °F 46% 30.34 in 10.0 mi ESE 8.1 mph - N/A   Clear
4:34 PM 44.4 °F 39.5 °F 25.5 °F 48% 30.33 in 10.0 mi ESE 9.2 mph - N/A   Clear
4:54 PM 43.5 °F 38.3 °F 25.5 °F 49% 30.32 in 10.0 mi ESE 9.2 mph - N/A   Clear
5:14 PM 42.3 °F 35.5 °F 24.8 °F 50% 30.32 in 10.0 mi ESE 12.7 mph - N/A   Clear
5:34 PM 41.5 °F 36.4 °F 25.3 °F 53% 30.31 in 10.0 mi ESE 8.1 mph - N/A   Clear
5:54 PM 40.5 °F 35.1 °F 26.2 °F 57% 30.31 in 10.0 mi ESE 8.1 mph - N/A   Clear
6:14 PM 40.1 °F 34.1 °F 26.2 °F 58% 30.29 in 10.0 mi East 9.2 mph - N/A   Clear
6:34 PM 39.6 °F 33.0 °F 27.0 °F 61% 30.28 in 10.0 mi East 10.4 mph - N/A   Clear
6:54 PM 39.9 °F 33.4 °F 26.8 °F 59% 30.28 in 10.0 mi ESE 10.4 mph - N/A   Clear
7:14 PM 39.6 °F 33.5 °F 26.8 °F 60% 30.27 in 10.0 mi ESE 9.2 mph - N/A   Clear
7:34 PM 39.4 °F 34.5 °F 27.1 °F 62% 30.27 in 10.0 mi East 6.9 mph - N/A   Clear
7:54 PM 39.6 °F 34.0 °F 27.0 °F 61% 30.27 in 10.0 mi SE 8.1 mph - N/A   Scattered Clouds
8:14 PM 39.7 °F 33.7 °F 27.1 °F 61% 30.26 in 10.0 mi ESE 9.2 mph - N/A   Mostly Cloudy
8:34 PM 39.6 °F 33.0 °F 28.2 °F 64% 30.24 in 10.0 mi ESE 10.4 mph 16.1 mph N/A Rain Light Rain
8:54 PM 38.7 °F 31.4 °F 30.2 °F 72% 30.23 in 10.0 mi ESE 11.5 mph - N/A   Overcast
9:14 PM 38.5 °F 31.1 °F 31.1 °F 75% 30.20 in 10.0 mi ESE 11.5 mph 18.4 mph N/A   Overcast
9:34 PM 38.3 °F 30.5 °F 32.0 °F 78% 30.18 in 7.0 mi ESE 12.7 mph - 0.01 in   Overcast
9:54 PM 37.9 °F 30.0 °F 32.2 °F 80% 30.17 in 7.0 mi ESE 12.7 mph - 0.01 in   Overcast
10:14 PM 38.1 °F 29.5 °F 32.2 °F 79% 30.15 in 7.0 mi ESE 15.0 mph - N/A   Overcast
10:34 PM 38.1 °F 30.7 °F 32.7 °F 81% 30.13 in 7.0 mi East 11.5 mph - N/A   Overcast
10:54 PM 38.3 °F 30.1 °F 32.9 °F 81% 30.12 in 7.0 mi East 13.8 mph 18.4 mph 0.01 in   Overcast
11:14 PM 38.5 °F 30.3 °F 33.1 °F 81% 30.10 in 7.0 mi East 13.8 mph - N/A Rain Light Rain
11:34 PM 38.5 °F 30.7 °F 33.1 °F 81% 30.08 in 10.0 mi ESE 12.7 mph 19.6 mph N/A   Overcast